Flag for France Weather past 2 weeks in Strasbourg, France

Now
70 °F

Passing clouds.


Feels Like: 70 °F
Forecast: 54 / 70 °F
Wind: 8 mph from Northwest

Location: Strasbourg Airport

Current Time: Sep 2, 2015 at 5:42:08 PM

Latest Report: Sep 2, 2015 at 5:00 PM


Visibility: N/A

Pressure: 29.98 "Hg

Humidity: 53%

Dew point: 52 °F

Location of StrasbourgLocation

Historic Weather in Strasbourg — Graph

°F

Strasbourg temperature yesterday

Maximum temperature yesterday: 79 °F (at 11:30 AM)
Minimum temperature yesterday: 57 °F (at 11:00 PM)
Average temperature yesterday: 68 °F

Past Weeks' High & Low Weather Summary

 TemperatureHumidityPressure
High95 °F (Aug 30, 3:30 PM)100% (Sep 2, 7:00 AM)30.27 "Hg (Sep 2, 7:00 AM)
Low48 °F (Aug 20, 5:30 AM)26% (Aug 31, 3:00 PM)29.68 "Hg (Aug 24, 7:00 AM)
Average69 °F66%30.01 "Hg
* Reported Aug 18 4:00 PM — Sep 2 4:30 PM, Strasbourg, Weather by CustomWeather, © 2015

Note: Actual official high and low records may vary slightly from our data, if they occured in-between our weather recording intervals... More about our weather records

Advertising

Strasbourg weather history for previous 24 hours

 ConditionsComfort  
Time TempWeatherWind HumidityBarometerVisibility
4:30 PM
Wed, Sep 2
70 °FPassing clouds.8 mph57%30.01 "HgN/A
4:00 PM70 °FSunny.8 mph57%30.01 "Hg10 mi
3:30 PM70 °FPassing clouds.8 mph53%30.01 "HgN/A
3:00 PM70 °FPassing clouds.8 mph57%30.01 "HgN/A
2:30 PM70 °FPassing clouds.3 mph53%30.01 "HgN/A
2:00 PM70 °FPassing clouds.6 mph53%30.01 "HgN/A
1:30 PM70 °FOvercast.5 mph53%30.01 "HgN/A
1:00 PM68 °FPartly sunny.5 mph60%30.04 "HgN/A
12:30 PM70 °FPassing clouds.3 mph60%30.04 "HgN/A
12:00 PM66 °FScattered clouds.5 mph64%30.04 "HgN/A
11:30 AM68 °FPassing clouds.2 mph60%30.04 "HgN/A
11:00 AM66 °FPartly sunny.5 mph68%30.04 "HgN/A
10:30 AM64 °FPassing clouds.3 mph68%30.04 "HgN/A
10:00 AM63 °FPassing clouds.3 mph83%30.04 "HgN/A
9:30 AM61 °FBroken clouds.3 mph83%30.07 "HgN/A
9:00 AM57 °FPartly sunny.2 mph94%30.07 "HgN/A
8:30 AM55 °FBroken clouds.2 mph94%30.07 "HgN/A
8:00 AM55 °FPartly sunny.1 mph94%30.07 "HgN/A
7:30 AM54 °FPassing clouds.2 mph94%30.07 "HgN/A
7:00 AM54 °FOvercast.No wind100%30.04 "HgN/A
6:00 AM54 °FPassing clouds.No wind94%30.04 "HgN/A
5:30 AM54 °FClear.1 mph94%30.07 "HgN/A
5:00 AM55 °FClear.No wind94%30.07 "Hg10 mi
4:30 AM55 °FClear.No wind94%30.07 "Hg10 mi
4:00 AM57 °FPassing clouds.No wind88%30.07 "HgN/A
3:30 AM57 °FClear.2 mph94%30.07 "Hg10 mi
3:00 AM57 °FClear.3 mph88%30.07 "Hg10 mi
2:30 AM57 °FClear.2 mph94%30.07 "Hg10 mi
2:00 AM57 °FClear.1 mph94%30.07 "Hg10 mi
1:30 AM57 °FPassing clouds.3 mph94%30.07 "HgN/A
1:00 AM55 °FPassing clouds.3 mph94%30.07 "HgN/A
11:30 PM
Tue, Sep 1
57 °FClear.2 mph88%30.07 "Hg10 mi
11:00 PM57 °FClear.1 mph88%30.07 "Hg10 mi
10:30 PM59 °FClear.1 mph88%30.07 "Hg10 mi
10:00 PM59 °FClear.3 mph88%30.07 "Hg10 mi
9:30 PM61 °FPassing clouds.2 mph83%30.04 "HgN/A
9:00 PM61 °FPassing clouds.3 mph83%30.04 "HgN/A
8:30 PM63 °FSunny.8 mph83%30.04 "Hg10 mi
8:00 PM64 °FPassing clouds.8 mph78%30.01 "HgN/A
7:30 PM64 °FPartly sunny.7 mph83%30.01 "HgN/A
7:00 PM64 °FBroken clouds.10 mph78%30.01 "HgN/A
6:30 PM66 °FPartly sunny.14 mph83%30.01 "HgN/A
6:00 PM64 °FLight rain. Partly sunny.12 mph88%29.98 "HgN/A
5:30 PM66 °FLight rain. More clouds than sun.10 mph88%29.98 "HgN/A
5:00 PM66 °FLight rain. Broken clouds.7 mph88%29.95 "HgN/A
Weather by CustomWeather, © 2015

See weather overviewHow to use our weather pages